DECAYED

STARLINK-5967, 56330 (Decayed)

Orbit data source: Space-Track

STARLINK-5967, 56330 was a payload satellite owned by SpaceX/Seattle (US) in LEO that was launched on Thu, 27 Apr 2023 UTC via an FALCON 9 launch vehicle from the Air Force Western Test Range (AFWTR). Payload-class satellites include a variety of spacecraft equipped with specific instruments for various scientific and technological missions. These include communications satellites like Starlink; space stations such as the ISS; scientific satellites like the Hubble; Earth observation satellites from companies like Planet Labs, Umbra, and HawkEye 360; GPS; miniature CubeSats for education and research; and military/defense satellites.

Not visible in the next 10 days
Identifier
56330, 2023-058P
Orbit
Decayed
Country
Flag of USUS
Related business
Manufacturer
SpaceX/Seattle
Mission
Decayed Commercial Communications
Bus & Motor
STARLINK, Unknown motor
Mass
300 kg wet, ~260 kg dry
Launch date (UTC)
2023-04-27 (3 years ago)
Launch vehicle
FALCON 9
Launch site
Air Force Western Test Range (AFWTR)
Object type
Payload
Rocket body
Debris
Shape & HBR
Box + 1 Pan, 10.1 m
Radar Cross Section
11.087 m², Large (>1 m²)

Expand to show TLE details & history
Last TLE update: 1 year ago

TLE from 1 year ago
0 STARLINK-5967
1 56330U 23058P   25120.06865450  .06015122  26787-5  69160-3 0  9996
2 56330  97.6293 130.6924 0013381 213.4301 146.6153 16.36616867111605
Epoch: 2025-04-30T01:38Z
TLE epoch observation values (Epoch: 2025-04-30T01:38:51.748Z)
Latitude
Longitude
-112.28249°
Altitude
185.384 km
Speed
7.791 km/s
True Right ascension
08h 42m 46s
True Declination
0° 00' 00"
Sunlit
Object was in daylight at epoch
Visualization orbit readout
Latitude
Unknown
Longitude
Unknown
Altitude
Unknown
Speed
Unknown
Apparent Right ascension
Unknown
Apparent Declination
Unknown
Sunlit
N/A
Visualization observer readout
Local Sidereal Time
21:29:36
Azimuth
Unknown
Elevation
Unknown
Doppler factor
Unknown
Orbital elements
Apogee altitude
180.404 km
Perigee altitude
162.876 km
Semi-major axis
6,549.777 km
Eccentricity
0.00134
Inclination
97.6293°
RAAN
130.6924°
Arg. of periapsis
213.4301°
True anomaly
146.69956°
Mean anomaly
146.6153°
Eccentric anomaly
146.65744°
Mean motion
4.09452 °/min
Orbital period
87.92 mins
BSTAR
0.0006916
Loading maneuver chart data...
Computing Atmospheric mass density...
Loading historical data...
Loading historical data...
Loading historical data...
Loading historical data...
Loading historical data...
Loading historical data...
Loading historical data...

Documentation

Showing up to 5 results
|